Location: Drignac
(45.1667°N, 2.0333°E)
Time: 18:49:46
(UTC+00:00)

STARLINK-1073 - Pass Details

Date: 29 March 2020
Orbit: 549 x 551 km, 53.0° (Epoch: 04 June)

Event Time Altitude Azimuth Distance (km) Brightness Sun altitude
Rises 20:41:53 0° 302° (WNW) 2,727 8.6 -24.7°
Reaches altitude 10° 20:44:07 10° 303° (WNW) 1,831 7.3 -25.0°
Enters shadow 20:47:33 59° 311° (NW) 640 4.1 -25.5°
